Location: B
(0.0000°N, 0.0000°E)
Time: 18:11:44
(UTC+02:00)

Daily predictions for brighter satellites

Satellite Brightness Start Highest point End
(mag) Time Altitude Azimuth Time Altitude Azimuth Time Altitude Azimuth
ATLAS 2A CENTAUR R/B 4.4 19:28:14 10° SW 19:35:25 75° SE 20:14:36 10° ENE
ARIANE DEB (SYLDA) 4.2 19:36:29 10° W 19:41:25 73° S 20:11:48 10° E
ARIANE DEB (SYLDA) 4.2 19:36:29 10° W 19:41:26 73° S 20:11:48 10° E
ARIANE DEB (SYLDA) 4.2 19:36:29 10° W 19:41:26 73° S 20:11:49 10° E
ARIANE 44L R/B 4.0 20:10:10 10° WSW 20:13:27 61° S 20:25:58 10° E
Centaur D AC-28 4.3 20:14:08 10° W 20:18:57 38° S 20:39:02 10° SE
Meteor 1-18 Rocket 4.2 20:29:23 10° N 20:35:06 69° E 20:40:43 10° SSE
Delta 202 4.3 20:32:01 10° NW 20:37:12 48° NNE 20:43:16 12° E
Ariane 42L R/B 4.0 20:29:56 10° W 20:40:26 44° NNW 20:43:31 10° ENE
FREGAT/IRIS 3.8 20:39:11 10° SE 20:41:48 24° E 20:44:26 10° NNE
Cosmos 1536 2.8 20:38:22 10° S 20:42:18 62° E 20:46:13 10° NNE
Cosmos 1503 Rocket 4.0 20:39:58 10° N 20:45:17 71° ENE 20:50:38 10° SSE
SAR-Lupe-4 3.6 20:43:06 10° S 20:46:41 80° WSW 20:50:13 10° NNW
Meteor 1-11 Rocket 4.1 20:41:03 10° SSW 20:46:48 69° W 20:52:23 10° N
Cosmos 1633 2.5 20:44:12 10° S 20:47:54 82° E 20:51:34 10° N
Cosmos 1809 Rocket 4.4 20:45:04 10° S 20:51:15 73° E 20:57:23 10° N
GPS 2-17 Rocket1 3.0 20:49:06 10° WSW 20:53:23 61° SSE 20:56:20 19° E
Okean 1-7 Rocket 4.0 20:50:16 10° NNE 20:54:20 37° E 20:58:27 10° SSE
Cosmos 2239 Rocket 4.5 20:49:47 10° S 20:56:03 66° E 21:02:13 10° NNE
Intelsat 5-2 Rocket 3.5 20:50:21 10° SW 20:56:40 43° SSE 20:58:17 24° ESE
Cosmos 2208 Rocket 3.9 20:51:31 10° S 20:56:44 78° ESE 21:01:59 10° NNE
ARIANE 42L R/B 4.0 20:39:32 10° W 21:00:26 69° S 21:03:18 23° ESE
SL-19 R/B 4.2 20:57:59 10° SSE 21:01:34 86° ENE 21:05:45 10° NNW
Cosmos 1934 Rocket 3.9 21:02:02 10° S 21:08:00 62° E 21:13:59 10° NNE
Cosmos 1812 3.8 21:04:25 10° NNW 21:08:07 47° W 21:11:52 10° SSW
GPS 2-18 Rocket1 4.3 21:06:44 10° W 21:10:27 38° NNW 21:12:56 18° NE
Spot 2 Rocket 3.5 21:07:47 10° SSE 21:12:48 57° ENE 21:17:47 10° N
Helios 1A 3.0 21:11:04 20° SSE 21:13:47 55° ENE 21:17:50 10° N
Okean 1 4.1 21:10:32 10° NNW 21:14:26 51° W 21:18:19 10° S
HJ-1C 3.2 21:14:03 44° SE 21:14:51 62° E 21:18:05 10° N
Resurs 1-3 4.0 21:13:59 33° ESE 21:15:11 41° ENE 21:19:17 10° N
GPS 2-14 Rocket1 2.9 21:11:28 10° SW 21:15:29 52° SSE 21:16:19 43° ESE
Sylda 4400 3.3 21:17:17 10° WNW 21:19:26 38° N 21:19:26 38° N
Cosmos 1455 Rocket 2.9 21:15:19 10° S 21:19:38 70° E 21:23:55 10° N
Cosmos 1833 4.2 21:16:08 10° N 21:21:46 63° ENE 21:25:10 25° SSE
Ariane H10+ 4.4 20:33:50 10° W 21:22:20 75° N 21:29:40 28° E
Cosmos 1697 Rocket 2.9 21:18:08 10° S 21:23:27 43° ESE 21:28:46 10° NE
NOAA 12 4.5 21:22:08 10° S 21:27:21 63° WSW 21:32:32 10° NNW
Cosmos 2219 4.3 21:22:42 10° NNE 21:26:07 25° NE 21:26:07 25° NE
ATLAS 2AS CENTAUR R/B 2.7 21:21:45 10° NNW 21:29:11 83° ENE 21:33:40 23° SSE
Resurs 01 Rocket 1.6 21:25:46 16° S 21:29:13 85° W 21:33:37 10° NNW
ISS -0.7 21:33:58 10° W 21:36:03 16° SW 21:37:13 14° SSW
GPS 2-12 Rocket1 3.3 21:34:04 10° WNW 21:38:44 55° NNE 21:38:53 55° NNE
Meteor 2-4 Rocket 3.8 21:33:50 10° N 21:39:37 55° E 21:39:57 54° E
ARIANE 5 R/B 4.0 21:36:10 10° W 21:41:40 86° S 21:51:25 33° E
Cosmos 1025 Rocket 3.4 21:37:29 10° N 21:40:48 52° N 21:40:48 52° N
GEOS 3 Rocket 3.4 21:44:36 70° E 21:44:47 71° ESE 21:49:58 10° SSW
FengYun 1-2 T 4.1 21:42:48 37° SSE 21:45:13 85° E 21:50:52 10° N
Cosmos 1605 Rocket 4.1 21:43:57 10° S 21:50:21 77° W 21:56:42 10° N
Cosmos 44 3.6 21:48:10 10° NW 21:52:35 52° WSW 21:52:43 52° WSW
GPS 2-04 Rocket1 3.9 21:49:24 10° WNW 21:52:08 42° W 21:52:08 42° W
Meteor 1-23 Rocket 4.3 21:50:16 10° N 21:55:08 64° NNE 21:55:08 64° NNE
Ariane H10 4.1 21:55:19 10° WSW 21:56:34 17° SW 21:56:34 17° SW
ARIANE 5 R/B 3.9 13:37:18 10° W 22:02:44 73° N 22:04:54 52° NE
Skynet4D Del rocket 4.4 21:55:53 10° SW 22:02:39 58° SSE 22:02:39 58° SSE
Ariane H10-3 4.3 22:16:19 10° W 22:18:41 21° W 22:18:41 21° W
Ariane H10 4.5 22:22:17 10° W 22:57:28 60° NNW 22:57:28 60° NNW
